Weather History for Litchfield, MN

Change the Weather History Date:

Monday, June 17, 2013

  Actual Average Record
Temperature  
Mean Temperature 71 °F -  
Max Temperature 80 °F 79 °F 93 °F (1971)
Min Temperature 62 °F 56 °F 43 °F (1983)
Cooling Degree Days 6    
Growing Degree Days 21 (Base 50)    
Moisture  
Dew Point 56 °F    
Average Humidity 60    
Maximum Humidity 83    
Minimum Humidity 39    
Precipitation  
Precipitation 0.00 in - - ()
Sea Level Pressure  
Sea Level Pressure 29.95 in    
Wind  
Wind Speed 6 mph (NW)    
Max Wind Speed 13 mph    
Max Gust Speed 18 mph    
Visibility 10 miles    
Events      
Averages and records for this station are not official NWS values.
T = Trace of Precipitation, MM = Missing Value Source: NWS Daily Summary

Daily Weather History Graph

Daily Weather History Graph

Search for Another Location

Airport:

Trip Planner

Search our weather history database for the weather conditions in past years. The results will help you decide how hot, cold, wet, or windy it might be!

Date:

Astronomy

Jun. 17, 2013 Rise Set
Actual Time 5:30 AM CDT 9:07 PM CDT
Civil Twilight 4:52 AM CDT 9:45 PM CDT
Nautical Twilight 4:02 AM CDT 10:35 PM CDT
Astronomical Twilight 2:56 AM CDT 11:41 PM CDT
Moon 2:33 PM CDT (6/17) 1:21 AM CDT (6/17)
Length of Visible Light 16h 52m
Length of Day
15h 37m
First Quarter, 60% of the Moon is Illuminated
Jun 17
First Quarter
Jun 23
Full
Jun 29
Last Quarter
Jul 8
New
Jul 15
First Quarter

Hourly Weather History & Observations

Time (CDT) Temp. Heat Index Dew Point Humidity Pressure Visibility Wind Dir Wind Speed Gust Speed Precip Events Conditions
12:13 AM 66.2 °F - 57.2 °F 73% 29.90 in 10.0 mi WSW 3.5 mph - N/A   Clear
12:33 AM 66.2 °F - 59.0 °F 78% 29.90 in 10.0 mi West 6.9 mph - N/A   Unknown
12:52 AM 68.0 °F - 57.2 °F 68% 29.91 in 10.0 mi WNW 8.1 mph - N/A   Unknown
1:13 AM 68.0 °F - 57.2 °F 68% 29.91 in 10.0 mi WNW 6.9 mph - N/A   Unknown
1:33 AM 68.0 °F - 57.2 °F 68% 29.91 in 10.0 mi WNW 5.8 mph - N/A   Scattered Clouds
1:52 AM 66.2 °F - 57.2 °F 73% 29.91 in 10.0 mi WNW 5.8 mph - N/A   Clear
2:13 AM 66.2 °F - 57.2 °F 73% 29.91 in 10.0 mi NW 4.6 mph - N/A   Clear
2:33 AM 64.4 °F - 57.2 °F 77% 29.91 in 10.0 mi WNW 3.5 mph - N/A   Clear
2:52 AM 64.4 °F - 57.2 °F 77% 29.92 in 10.0 mi WNW 3.5 mph - N/A   Scattered Clouds
3:13 AM 64.4 °F - 57.2 °F 77% 29.92 in 10.0 mi Calm Calm - N/A   Unknown
3:32 AM 64.4 °F - 59.0 °F 83% 29.92 in 10.0 mi Calm Calm - N/A   Unknown
3:53 AM 62.6 °F - 57.2 °F 82% 29.92 in 10.0 mi WNW 4.6 mph - N/A   Scattered Clouds
4:13 AM 64.4 °F - 57.2 °F 77% 29.92 in 10.0 mi WNW 3.5 mph - N/A   Scattered Clouds
4:32 AM 62.6 °F - 57.2 °F 82% 29.92 in 10.0 mi Calm Calm - N/A   Clear
4:53 AM 62.6 °F - 57.2 °F 82% 29.93 in 10.0 mi WSW 3.5 mph - N/A   Clear
5:13 AM 62.6 °F - 57.2 °F 82% 29.92 in 10.0 mi Calm Calm - N/A   Clear
5:32 AM 62.6 °F - 57.2 °F 82% 29.93 in 10.0 mi West 3.5 mph - N/A   Clear
5:53 AM 62.6 °F - 57.2 °F 82% 29.93 in 10.0 mi West 4.6 mph - N/A   Unknown
6:13 AM 62.6 °F - 57.2 °F 82% 29.93 in 10.0 mi West 3.5 mph - N/A   Unknown
6:32 AM 64.4 °F - 57.2 °F 77% 29.93 in 10.0 mi West 3.5 mph - N/A   Unknown
6:53 AM 66.2 °F - 57.2 °F 73% 29.93 in 10.0 mi WNW 5.8 mph - N/A   Clear
7:13 AM 66.2 °F - 57.2 °F 73% 29.94 in 10.0 mi WNW 6.9 mph - N/A   Clear
7:32 AM 68.0 °F - 57.2 °F 68% 29.94 in 10.0 mi WNW 6.9 mph - N/A   Clear
7:53 AM 69.8 °F - 59.0 °F 68% 29.95 in 10.0 mi West 3.5 mph - N/A   Clear
8:13 AM 71.6 °F - 59.0 °F 64% 29.96 in 10.0 mi West 5.8 mph - N/A   Clear
8:32 AM 71.6 °F - 59.0 °F 64% 29.96 in 10.0 mi West 5.8 mph - N/A   Clear
8:53 AM 71.6 °F - 57.2 °F 60% 29.96 in 10.0 mi West 8.1 mph - N/A   Clear
9:13 AM 73.4 °F - 57.2 °F 57% 29.96 in 10.0 mi West 8.1 mph - N/A   Clear
9:32 AM 73.4 °F - 55.4 °F 53% 29.96 in 10.0 mi WNW 6.9 mph - N/A   Clear
9:53 AM 73.4 °F - 55.4 °F 53% 29.96 in 10.0 mi West 10.4 mph - N/A   Clear
10:13 AM 73.4 °F - 55.4 °F 53% 29.95 in 10.0 mi WNW 11.5 mph 16.1 mph N/A   Clear
10:32 AM 75.2 °F - 53.6 °F 47% 29.96 in 10.0 mi WNW 12.7 mph - N/A   Clear
10:53 AM 75.2 °F - 53.6 °F 47% 29.95 in 10.0 mi WNW 12.7 mph 18.4 mph N/A   Clear
11:12 AM 75.2 °F - 55.4 °F 50% 29.95 in 10.0 mi WNW 9.2 mph 16.1 mph N/A   Clear
11:33 AM 75.2 °F - 55.4 °F 50% 29.96 in 10.0 mi NW 8.1 mph 16.1 mph N/A   Scattered Clouds
11:53 AM 75.2 °F - 53.6 °F 47% 29.97 in 10.0 mi WNW 10.4 mph - N/A   Mostly Cloudy
12:12 PM 75.2 °F - 51.8 °F 44% 29.97 in 10.0 mi West 10.4 mph 17.3 mph N/A   Scattered Clouds
12:33 PM 77.0 °F - 51.8 °F 41% 29.98 in 10.0 mi WNW 8.1 mph 16.1 mph N/A   Clear
12:53 PM 75.2 °F - 53.6 °F 47% 29.98 in 10.0 mi WNW 6.9 mph - N/A   Scattered Clouds
1:12 PM 75.2 °F - 53.6 °F 47% 29.98 in 10.0 mi WNW 10.4 mph - N/A   Scattered Clouds
1:33 PM 78.8 °F - 55.4 °F 44% 29.97 in 10.0 mi NW 10.4 mph - N/A   Scattered Clouds
1:53 PM 75.2 °F - 53.6 °F 47% 29.96 in 10.0 mi West 8.1 mph - N/A   Mostly Cloudy
2:12 PM 75.2 °F - 55.4 °F 50% 29.96 in 10.0 mi WNW 8.1 mph - N/A   Scattered Clouds
2:33 PM 78.8 °F - 55.4 °F 44% 29.96 in 10.0 mi NNW 10.4 mph - N/A   Scattered Clouds
2:53 PM 78.8 °F - 55.4 °F 44% 29.96 in 10.0 mi NW 9.2 mph - N/A   Scattered Clouds
3:12 PM 78.8 °F - 53.6 °F 42% 29.96 in 10.0 mi West 9.2 mph 17.3 mph N/A   Mostly Cloudy
3:33 PM 78.8 °F - 55.4 °F 44% 29.95 in 10.0 mi NW 9.2 mph - N/A   Mostly Cloudy
3:53 PM 77.0 °F - 55.4 °F 47% 29.96 in 10.0 mi WNW 4.6 mph - N/A   Scattered Clouds
4:12 PM 78.8 °F - 53.6 °F 42% 29.95 in 10.0 mi WNW 8.1 mph - N/A   Scattered Clouds
4:33 PM 80.6 °F 80.3 °F 53.6 °F 39% 29.95 in 10.0 mi WNW 9.2 mph - N/A   Mostly Cloudy
4:53 PM 77.0 °F - 55.4 °F 47% 29.95 in 10.0 mi North 5.8 mph - N/A   Mostly Cloudy
5:12 PM 75.2 °F - 55.4 °F 50% 29.95 in 10.0 mi North 9.2 mph - N/A   Mostly Cloudy
5:33 PM 75.2 °F - 55.4 °F 50% 29.95 in 10.0 mi North 10.4 mph - N/A   Mostly Cloudy
5:53 PM 75.2 °F - 55.4 °F 50% 29.95 in 10.0 mi North 8.1 mph - N/A   Scattered Clouds
6:12 PM 78.8 °F - 55.4 °F 44% 29.94 in 10.0 mi North 8.1 mph - N/A   Clear
6:33 PM 78.8 °F - 55.4 °F 44% 29.95 in 10.0 mi North 6.9 mph - N/A   Scattered Clouds
6:52 PM 75.2 °F - 55.4 °F 50% 29.95 in 10.0 mi North 6.9 mph - N/A   Scattered Clouds
7:13 PM 78.8 °F - 55.4 °F 44% 29.95 in 10.0 mi North 6.9 mph - N/A   Mostly Cloudy
7:32 PM 77.0 °F - 55.4 °F 47% 29.95 in 10.0 mi North 6.9 mph - N/A   Scattered Clouds
7:53 PM 75.2 °F - 57.2 °F 53% 29.95 in 10.0 mi North 3.5 mph - N/A   Scattered Clouds
8:12 PM 73.4 °F - 55.4 °F 53% 29.95 in 10.0 mi North 4.6 mph - N/A   Mostly Cloudy
8:33 PM 73.4 °F - 55.4 °F 53% 29.96 in 10.0 mi NNE 4.6 mph - N/A   Overcast
8:53 PM 73.4 °F - 57.2 °F 57% 29.96 in 10.0 mi ENE 8.1 mph - N/A   Overcast
9:12 PM 71.6 °F - 59.0 °F 64% 29.98 in 10.0 mi ENE 4.6 mph - N/A   Overcast
9:33 PM 71.6 °F - 59.0 °F 64% 29.98 in 10.0 mi ENE 5.8 mph - N/A   Mostly Cloudy
9:53 PM 69.8 °F - 59.0 °F 68% 29.99 in 10.0 mi ENE 5.8 mph - N/A   Scattered Clouds
10:12 PM 69.8 °F - 59.0 °F 68% 30.01 in 10.0 mi NE 5.8 mph - N/A   Overcast
10:33 PM 69.8 °F - 57.2 °F 64% 30.01 in 10.0 mi ENE 9.2 mph - N/A   Overcast
10:53 PM 68.0 °F - 57.2 °F 68% 30.03 in 10.0 mi ENE 10.4 mph - N/A   Mostly Cloudy
11:13 PM 66.2 °F - 55.4 °F 68% 30.03 in 10.0 mi ENE 8.1 mph 17.3 mph N/A   Scattered Clouds
11:32 PM 64.4 °F - 55.4 °F 73% 30.03 in 10.0 mi ENE 8.1 mph - N/A   Scattered Clouds
11:53 PM 64.4 °F - 55.4 °F 73% 30.03 in 10.0 mi ENE 6.9 mph - N/A   Clear